COSMOS 2251 DEB, 33999

Orbit data source: Space-Track

COSMOS 2251 DEB, 33999 is space debris in LEO originally from a launch on Wed, 16 Jun 1993 UTC launched from the Plesetsk Missile And Space Complex (PKMTR). The debris from Iridium 33, an American commercial communications satellite, has been tracked extensively since its accidental collision with the defunct Russian satellite Cosmos 2251 in 2009. This event, occurring at high speed in low Earth orbit (LEO), generated thousands of pieces of space debris, significantly increasing the risk of further collisions. The Iridium 33 debris cloud has impacted space traffic management and orbital debris mitigation strategies, making it a subject of ongoing study in space situational awareness.

Loading next visibility...
Identifier
33999, 1993-036GJ
Orbit
LEO
Country
Flag of CISCIS
Related business
Manufacturer
Unknown
Mission
Spacecraft
Bus & Motor
Unknown
Mass
Unknown
Launch date (UTC)
1993-06-16 (33 years ago)
Launch vehicle
Unknown
Launch site
Plesetsk Missile And Space Complex (PKMTR)
Object type
Payload
Rocket body
Debris
Shape & HBR
Unknown shape, 0.1 m
Radar Cross Section
Medium (>0.1 m² and <1 m²)

Expand to show TLE details & history
Last TLE update: 2 days ago

TLE from 2 days ago
0 COSMOS 2251 DEB
1 33999U 93036GJ  26235.98175929  .00007131  00000-0  75037-3 0  9999
2 33999  73.9144  81.2002 0040352 272.2122  87.4438 14.88975442930286
Epoch: 2026-08-23T23:33Z
TLE epoch observation values (Epoch: 2026-08-23T23:33:44.002Z)
Latitude
-0.00004°
Longitude
115.49684°
Altitude
602.66 km
Speed
7.559 km/s
True Right ascension
05h 24m 48s
True Declination
0° 00' 00"
Sunlit
Object was in daylight at epoch
Visualization orbit readout
Latitude
Unknown
Longitude
Unknown
Altitude
Unknown
Speed
Unknown
Apparent Right ascension
Unknown
Apparent Declination
Unknown
Sunlit
N/A
Visualization observer readout
Local Sidereal Time
06:13:19
Azimuth
Unknown
Elevation
Unknown
Doppler factor
Unknown
Orbital elements
Apogee altitude
626.865 km
Perigee altitude
570.559 km
Semi-major axis
6,976.849 km
Eccentricity
0.00404
Inclination
73.9144°
RAAN
81.2002°
Arg. of periapsis
272.2122°
True anomaly
87.90584°
Mean anomaly
87.4438°
Eccentric anomaly
87.67481°
Mean motion
3.72438 °/min
Orbital period
96.66 mins
BSTAR
0.00075037

Documentation

Showing up to 5 results
|